Flag for Brazil

Past Weather in Porto Alegre, Rio Grande do Sul, Brazil — Yesterday and Last 2 Weeks

Now
66 °F

Overcast.


Feels Like: 66 °F
Forecast: 67 / 52 °F
Wind: 9 mph from South

Location: Porto Alegre Aero-Porto
Current Time: Sep 19, 2020 at 1:39:40 pm
Latest Report: Sep 19, 2020 at 1:00 pm
Visibility: N/A
Pressure30.04 "Hg
Humidity: 73%
Dew Point: 57 °F
Location of Porto AlegreLocation

Past Weather in Porto Alegre — Graph

°F

Porto Alegre Temperature Yesterday

Maximum temperature yesterday: 79 °F (at 3:00 pm)
Minimum temperature yesterday: 59 °F (at 5:00 am)
Average temperature yesterday: 67 °F

High & Low Weather Summary for the Past Weeks

 TemperatureHumidityPressure
High79 °F (Sep 9, 2:00 pm)100% (Sep 5, 5:20 am)30.36 "Hg (Sep 5, 5:20 am)
Low46 °F (Sep 15, 5:00 am)55% (Sep 14, 2:00 pm)29.77 "Hg (Sep 11, 6:00 pm)
Average63 °F92%30.01 "Hg
* Reported Sep 4 12:00 pm — Sep 19 12:00 pm, Porto Alegre. Weather by CustomWeather, © 2020

Note: Actual official high and low records may vary slightly from our data, if they occured in-between our weather recording intervals... More about our weather records

Porto Alegre Weather History for the Previous 24 Hours

Scroll right to see more
 ConditionsComfort  
Time TempWeatherWind HumidityBarometerVisibility
12:00 pm
Sat, Sep 19
68 °FMore clouds than sun.8 mph73%30.01 "HgN/A
11:00 am64 °FOvercast.7 mph88%30.01 "HgN/A
10:00 am64 °FPartly sunny.8 mph83%29.98 "HgN/A
9:00 am63 °FBroken clouds.6 mph88%29.98 "HgN/A
8:00 am63 °FPartly sunny.6 mph94%29.95 "Hg5 mi
7:00 am59 °FPartly sunny.2 mph100%29.92 "Hg5 mi
6:00 am61 °FPassing clouds.2 mph94%29.89 "Hg5 mi
5:00 am61 °FClear.2 mph100%29.86 "Hg6 mi
4:00 am64 °FClear.5 mph100%29.83 "Hg5 mi
3:00 am61 °FClear.2 mph100%29.83 "Hg5 mi
2:00 am64 °FClear.2 mph100%29.83 "Hg5 mi
1:00 am63 °FClear.1 mph100%29.86 "Hg5 mi
12:00 am64 °FClear.2 mph100%29.86 "Hg6 mi
11:00 pm
Fri, Sep 18
64 °FClear.1 mph100%29.86 "Hg10 mi
10:00 pm66 °FClear.1 mph94%29.86 "Hg10 mi
9:00 pm68 °FClear.1 mph88%29.86 "Hg10 mi
8:00 pm73 °FClear.2 mph74%29.83 "Hg10 mi
7:00 pm73 °FClear.5 mph78%29.83 "Hg10 mi
6:00 pm75 °FSunny.6 mph74%29.80 "Hg10 mi
5:00 pm79 °FSunny.10 mph65%29.80 "Hg10 mi
4:00 pm79 °FSunny.8 mph61%29.80 "Hg10 mi
3:00 pm79 °FPassing clouds.12 mph65%29.80 "HgN/A
2:00 pm77 °FPassing clouds.7 mph69%29.83 "HgN/A
1:00 pm75 °FPassing clouds.7 mph78%29.86 "HgN/A
Weather by CustomWeather, © 2020

See weather overview